Flag for Brazil Weather past 2 weeks in Niterói, Rio de Janeiro, Brazil

Now
70 °F

Clear.


Feels Like: 70 °F
Forecast: 67 / 85 °F
Wind: 6 mph from North

Location: Rio De Janeiro Airport

Current Time: Aug 4, 2015 at 2:35:43 AM

Latest Report: Aug 4, 2015 at 2:00 AM


Visibility: 10 mi

Pressure: 30.04 "Hg

Humidity: 83%

Dew point: 64 °F

Location of NiteróiLocation

Historic Weather in Niterói — Graph

°F

Niterói temperature yesterday

Maximum temperature yesterday: 82 °F (at 1:00 PM)
Minimum temperature yesterday: 70 °F (at 1:00 AM)
Average temperature yesterday: 74 °F

Past Weeks' High & Low Weather Summary

 TemperatureHumidityPressure
High91 °F (Aug 1, 2:00 PM)100% (Jul 25, 9:00 AM)30.30 "Hg (Jul 25, 9:00 AM)
Low66 °F (Jul 22, 2:00 AM)35% (Jul 21, 1:00 PM)29.92 "Hg (Jul 21, 4:00 AM)
Average73 °F81%30.09 "Hg
* Reported Jul 20 1:00 AM — Aug 4 1:00 AM, Niterói, Weather by CustomWeather, © 2015

Note: Actual official high and low records may vary slightly from our data, if they occured in-between our weather recording intervals... More about our weather records

Advertising

Niterói weather history for previous 24 hours

 ConditionsComfort  
Time TempWeatherWind HumidityBarometerVisibility
1:00 AM
Tue, Aug 4
72 °FClear.7 mph73%30.07 "Hg10 mi
12:00 AM73 °FClear.6 mph74%30.07 "Hg10 mi
11:00 PM
Mon, Aug 3
73 °FClear.7 mph74%30.07 "Hg10 mi
10:00 PM75 °FClear.5 mph65%30.07 "Hg10 mi
9:00 PM73 °FClear.No wind74%30.04 "Hg10 mi
8:00 PM75 °FClear.No wind74%30.04 "Hg10 mi
7:00 PM75 °FClear.6 mph65%30.04 "Hg10 mi
6:00 PM75 °FClear.5 mph61%30.04 "Hg10 mi
5:00 PM77 °FClear.7 mph61%30.01 "Hg10 mi
4:00 PM81 °FSunny.9 mph54%30.01 "Hg10 mi
3:00 PM79 °FSunny.12 mph65%30.01 "Hg10 mi
2:00 PM81 °FSunny.8 mph62%30.01 "Hg10 mi
1:00 PM82 °FSunny.12 mph51%30.04 "Hg10 mi
12:00 PM81 °FSunny.5 mph70%30.04 "Hg10 mi
11:00 AM77 °FSunny.6 mph69%30.07 "Hg10 mi
10:00 AM75 °FSunny.6 mph74%30.07 "Hg10 mi
9:00 AM73 °FSunny.6 mph78%30.04 "Hg10 mi
8:00 AM72 °FSunny.7 mph78%30.04 "Hg10 mi
7:00 AM70 °FSunny.7 mph88%30.01 "Hg10 mi
6:00 AM70 °FSunny.6 mph88%30.01 "Hg10 mi
5:00 AM70 °FClear.5 mph83%30.01 "Hg10 mi
4:00 AM70 °FClear.5 mph83%30.01 "Hg10 mi
3:00 AM70 °FClear.5 mph83%30.01 "Hg10 mi
2:00 AM70 °FClear.6 mph83%30.01 "Hg10 mi
Weather by CustomWeather, © 2015

See weather overviewHow to use our weather pages